Regional Weather Roundup
Issued by NWS Sioux Falls, SD

Home | Current Version | Previous Version | Graphics & Text | Print | Product List | Glossary Off
Versions: 1 2 3 4 5 6 7 8 9 10 11 12 13 14 15 16 17 18 19 20 21 22 23 24 25 26 27 28 29 30 31 32 33 34 35 36 37 38 39 40 41 42 43 44 45 46 47 48 49 50

000
ASUS43 KFSD 271802
RWRFSD

WEATHER ROUNDUP FOR SE SOUTH DAKOTA/SW MINNESOTA/NW IOWA
NATIONAL WEATHER SERVICE SIOUX FALLS SD
100 PM CDT MON MAR 27 2017

NOTE: "FAIR" INDICATES FEW OR NO CLOUDS BELOW 12,000 FEET WITH NO
SIGNIFICANT WEATHER AND OR OBSTRUCTIONS TO VISIBILITY.


SDZ038>040-050-052>070-271900-
SOUTHEAST SOUTH DAKOTA

CITY           SKY/WX    TMP DP  RH WIND       PRES   REMARKS
BROOKINGS      MOSUNNY   52  36  54 VRB7      29.96F
CHAMBERLAIN    MOSUNNY   56  40  55 NE5       29.95S
6HR MIN TEMP:  30; 6HR MAX TEMP:  56;

HURON          MOSUNNY   54  38  54 VRB5      29.96F
6HR MIN TEMP:  38; 6HR MAX TEMP:  55;

MADISON        FAIR      50  45  81 W6        29.97F
MITCHELL       SUNNY     53  38  56 CALM      29.97F
6HR MIN TEMP:  28; 6HR MAX TEMP:  54;

SIOUX FALLS    MOSUNNY   55  37  50 N7        29.97F
6HR MIN TEMP:  40; 6HR MAX TEMP:  56;

WINNER         FAIR      57  40  52 VRB5      29.93F
YANKTON        SUNNY     52  37  58 E5        29.98F
$$

MNZ071-072-080-081-089-090-097-098-271900-
SOUTHWEST MINNESOTA

CITY           SKY/WX    TMP DP  RH WIND       PRES   REMARKS
FAIRMONT       CLOUDY    47  40  76 NE9       29.98S
JACKSON        CLOUDY    45  37  76 N6        29.98S
LUVERNE        CLOUDY    46  36  66 CALM      29.98F
MARSHALL       PTSUNNY   50  37  61 W6        29.98F
6HR MIN TEMP:  38; 6HR MAX TEMP:  50;

MONTEVIDEO     PTSUNNY   55  39  54 N6        30.00F
PIPESTONE      MOSUNNY   50  36  57 N3        29.96F
REDWOOD FALLS  PTSUNNY   54  38  54 NE6       29.98S
TRACY          PTSUNNY   51  39  64 CALM      29.98F
WINDOM         MOSUNNY   48  37  66 N8        29.98S
WORTHINGTON    CLOUDY    45  37  73 N7        29.99S
$$

IAZ001>003-012>014-020>022-031-032-NEZ013-014-SDZ071-271900-
NORTHWEST IOWA

CITY           SKY/WX    TMP DP  RH WIND       PRES   REMARKS
CHEROKEE       CLOUDY    49  38  67 NE5       29.99R
DENISON        CLOUDY    48  41  76 NE7       29.99S
ESTHERVILLE    CLOUDY    46  39  76 N9        29.97S
LE MARS        CLOUDY    52  39  62 CALM      29.99S
ORANGE CITY    CLOUDY    48  39  71 NE5       29.98S
SHELDON        CLOUDY    46 N/A N/A NE8       29.97S
SIOUX CITY     CLOUDY    50  40  68 S3        29.98S
6HR MIN TEMP:  42; 6HR MAX TEMP:  52;

SPENCER        CLOUDY    47  38  71 N10       29.98S
6HR MIN TEMP:  35; 6HR MAX TEMP:  47;

STORM LAKE       N/A     46  39  76 NE9       29.98R
$$

ABBREVIATIONS USED IN REMARKS
   TC - TEMPERATURE IN CELSIUS
  WCI - WIND CHILL INDEX
   HX - HEAT INDEX
  VSB - VISIBILITY




USA.gov is the U.S. government's official web portal to all federal, state and local government web resources and services.